This demonstration page uses our WeatherBlox Daily Observations layout. Learn more.

Left ArrowRight Arrow

Hourly Observations for April 13, 2017

Temp ( °F °C ) Dew Point ( °F °C ) Humidity (%) Winds ( mph kmh ) Pressure ( in mb ) Visibility ( mi km ) Precip ( " mm )
12:59 am 00:59 Partly Cloudy 59 15 54 12.2 83 83 VRB 3 6 30.27 1025 10 16 0.00 0.00
1:59 am 01:59 Partly Cloudy 58 14.4 55 12.8 90 90 VRB 3 6 30.26 1025 9 14 0.00 0.00
2:59 am 02:59 Partly Cloudy 57 13.9 54 12.2 90 90 VRB 3 6 30.26 1025 9 14 0.00 0.00
3:59 am 03:59 Partly Cloudy 59 15 57 13.9 93 93 Calm 30.27 1025 10 16 0.00 0.00
4:59 am 04:59 Partly Cloudy 60 15.6 54 12.2 80 80 NNE 10 17 30.28 1026 10 16 0.00 0.00
5:59 am 05:59 Partly Cloudy 61 16.1 52 11.1 72 72 NNE 13 20 30.28 1026 10 16 0.00 0.00
6:59 am 06:59 Partly Cloudy 60 15.6 47 8.3 62 62 NNE 10 17 30.32 1027 10 16 0.00 0.00
7:59 am 07:59 Partly Cloudy 62 16.7 48 8.9 60 60 NNE 13 20 30.35 1028 10 16 0.00 0.00
8:59 am 08:59 Mostly Cloudy 62 16.7 47 8.3 58 58 NNE 12 19 30.36 1028 10 16 0.00 0.00
9:59 am 09:59 Mostly Cloudy 62 16.7 48 8.9 60 60 NE 12 19 30.38 1029 10 16 0.00 0.00
10:59 am 10:59 Mostly Cloudy 61 16.1 46 7.8 58 58 ENE 17 28 30.39 1029 10 16 0.00 0.00
11:59 am 11:59 Partly Cloudy 61 16.1 47 8.3 60 60 ENE 15 24 30.39 1029 10 16 0.00 0.00
12:59 pm 12:59 Partly Cloudy 60 15.6 46 7.8 60 60 ENE 13 20 30.38 1029 10 16 0.00 0.00
1:59 pm 13:59 Mostly Cloudy 61 16.1 45 7.2 56 56 ENE 13 20 30.38 1029 10 16 0.00 0.00
2:59 pm 14:59 Mostly Cloudy 60 15.6 45 7.2 58 58 E 10 17 30.36 1028 10 16 0.00 0.00
3:59 pm 15:59 Partly Cloudy 59 15 44 6.7 58 58 ENE 12 19 30.34 1027 10 16 0.00 0.00
4:59 pm 16:59 Partly Cloudy 59 15 42 5.6 54 54 E 10 17 30.34 1027 10 16 0.00 0.00
5:59 pm 17:59 Partly Cloudy 58 14.4 41 5 53 53 E 12 19 30.32 1027 10 16 0.00 0.00
6:59 pm 18:59 Mostly Cloudy 57 13.9 41 5 55 55 E 10 17 30.33 1027 10 16 0.00 0.00
7:59 pm 19:59 Mostly Cloudy 55 12.8 41 5 59 59 E 8 13 30.36 1028 10 16 0.00 0.00
8:59 pm 20:59 Mostly Cloudy 54 12.2 41 5 62 62 E 8 13 30.37 1029 10 16 0.00 0.00
9:59 pm 21:59 Partly Cloudy 53 11.7 42 5.6 66 66 E 6 9 30.39 1029 10 16 0.00 0.00
10:59 pm 22:59 Partly Cloudy 52 11.1 39 3.9 61 61 ESE 7 11 30.36 1028 10 16 0.00 0.00
11:59 pm 23:59 Clear 50 10 39 3.9 66 66 ESE 3 6 30.36 1028 10 16 0.00 0.00

Powered by AerisWeather